When you browse on this site, cookies collect data to enhance your experience and personalize the content and advertising you see.
Visit our Privacy Policy to learn more. By continuing to use the site, you agree to this use of cookies and data.
  • In Hungary
  • List of Countries
  • For 7 days
  • Water Temperature
  • Weather Map
  • News
  • Weather Widgets
  • user-avatar
    Login

    Hourly Weather Geniyatl

    Today, 18 October, Friday

    Time Temperature Precipitation Wind Pressure Humidity
    00:00 +8°C° 0 mm 1 mps 619 mmHg 61%
    01:00 +8°C° 0 mm 1 mps 618 mmHg 61%
    02:00 +8°C° 0 mm 1 mps 618 mmHg 62%
    03:00 +8°C° 0 mm 1 mps 618 mmHg 62%
    04:00 +8°C° 0 mm 1 mps 618 mmHg 61%
    05:00 +8°C° 0 mm 1 mps 618 mmHg 61%
    06:00 +8°C° 0 mm 1 mps 618 mmHg 60%
    07:00 +10°C° 0 mm 1 mps 619 mmHg 52%
    08:00 +13°C° 0 mm 1 mps 620 mmHg 44%
    09:00 +15°C° 0 mm 0 mps 621 mmHg 36%
    10:00 +18°C° 0 mm 1 mps 621 mmHg 34%
    11:00 +19°C° 0 mm 1 mps 621 mmHg 31%
    12:00 +20°C° 0 mm 1 mps 621 mmHg 28%
    13:00 +20°C° 0 mm 1 mps 621 mmHg 30%
    14:00 +19°C° 0 mm 1 mps 621 mmHg 32%
    15:00 +19°C° 0 mm 1 mps 620 mmHg 34%
    16:00 +16°C° 0 mm 1 mps 619 mmHg 40%
    17:00 +14°C° 0 mm 1 mps 619 mmHg 47%
    18:00 +11°C° 0 mm 1 mps 618 mmHg 54%
    19:00 +11°C° 0 mm 1 mps 618 mmHg 53%
    20:00 +11°C° 0 mm 1 mps 618 mmHg 52%
    21:00 +10°C° 0 mm 1 mps 618 mmHg 50%
    22:00 +10°C° 0 mm 1 mps 618 mmHg 50%
    23:00 +10°C° 0 mm 1 mps 617 mmHg 50%

    Tomorrow, 19 October, Saturday

    Time Temperature Precipitation Wind Pressure Humidity
    00:00 +9°C° 0 mm 1 mps 617 mmHg 50%
    01:00 +9°C° 0 mm 1 mps 617 mmHg 50%
    02:00 +9°C° 0 mm 1 mps 617 mmHg 50%
    03:00 +9°C° 0 mm 1 mps 617 mmHg 51%
    04:00 +9°C° 0 mm 1 mps 617 mmHg 51%
    05:00 +9°C° 0 mm 1 mps 617 mmHg 52%
    06:00 +9°C° 0 mm 1 mps 617 mmHg 52%
    07:00 +11°C° 0 mm 1 mps 618 mmHg 48%
    08:00 +12°C° 0 mm 0 mps 619 mmHg 44%
    09:00 +14°C° 0 mm 0 mps 620 mmHg 40%
    10:00 +16°C° 0 mm 1 mps 621 mmHg 39%
    11:00 +18°C° 0 mm 1 mps 621 mmHg 39%
    12:00 +19°C° 0 mm 1 mps 621 mmHg 38%
    13:00 +18°C° 0 mm 1 mps 621 mmHg 41%
    14:00 +18°C° 0 mm 1 mps 620 mmHg 44%
    15:00 +16°C° 0 mm 1 mps 620 mmHg 47%
    16:00 +15°C° 0 mm 1 mps 619 mmHg 54%
    17:00 +13°C° 0 mm 1 mps 619 mmHg 61%
    18:00 +12°C° 0 mm 1 mps 619 mmHg 69%
    19:00 +10°C° 0 mm 0 mps 619 mmHg 71%
    20:00 +9°C° 0 mm 0 mps 619 mmHg 73%
    21:00 +9°C° 0 mm 0 mps 619 mmHg 75%
    22:00 +9°C° 0 mm 0 mps 619 mmHg 77%
    23:00 +8°C° 0 mm 0 mps 619 mmHg 79%

    Day after tomorrow, 20 October, Sunday

    Time Temperature Precipitation Wind Pressure Humidity
    00:00 +8°C° 0 mm 0 mps 619 mmHg 81%
    01:00 +7°C° 0 mm 0 mps 618 mmHg 82%
    02:00 +8°C° 0 mm 1 mps 618 mmHg 82%
    03:00 +8°C° 0 mm 1 mps 618 mmHg 83%
    04:00 +8°C° 0 mm 1 mps 618 mmHg 82%
    05:00 +8°C° 0 mm 1 mps 619 mmHg 82%
    06:00 +8°C° 0 mm 1 mps 619 mmHg 81%
    07:00 +10°C° 0 mm 1 mps 620 mmHg 73%
    08:00 +11°C° 0 mm 0 mps 621 mmHg 65%
    09:00 +13°C° 0 mm 0 mps 622 mmHg 57%
    10:00 +15°C° 0 mm 1 mps 622 mmHg 56%
    11:00 +16°C° 0 mm 1 mps 622 mmHg 54%
    12:00 +17°C° 0 mm 2 mps 622 mmHg 52%
    13:00 +16°C° 0.3 mm 1 mps 622 mmHg 56%
    14:00 +16°C° 0.3 mm 1 mps 621 mmHg 59%
    15:00 +15°C° 0.3 mm 1 mps 621 mmHg 63%
    16:00 +14°C° 0.3 mm 1 mps 621 mmHg 71%
    17:00 +12°C° 0.3 mm 1 mps 620 mmHg 79%
    18:00 +10°C° 0.3 mm 0 mps 620 mmHg 87%
    19:00 +9°C° 0 mm 0 mps 620 mmHg 88%
    20:00 +9°C° 0 mm 0 mps 620 mmHg 88%
    21:00 +8°C° 0 mm 0 mps 620 mmHg 89%
    22:00 +8°C° 0 mm 0 mps 620 mmHg 90%
    23:00 +8°C° 0 mm 0 mps 620 mmHg 91%

    21 October, Monday

    Time Temperature Precipitation Wind Pressure Humidity
    00:00 +9°C° 0 mm 1 mps 620 mmHg 92%
    01:00 +9°C° 0 mm 1 mps 620 mmHg 92%
    02:00 +9°C° 0 mm 1 mps 620 mmHg 93%
    03:00 +9°C° 0 mm 1 mps 620 mmHg 93%
    04:00 +8°C° 0 mm 1 mps 620 mmHg 92%
    05:00 +8°C° 0 mm 1 mps 619 mmHg 91%
    06:00 +8°C° 0 mm 1 mps 619 mmHg 90%
    07:00 +9°C° 0 mm 1 mps 620 mmHg 83%
    08:00 +11°C° 0 mm 1 mps 621 mmHg 76%
    09:00 +13°C° 0 mm 1 mps 622 mmHg 69%
    10:00 +14°C° 0 mm 1 mps 622 mmHg 67%
    11:00 +14°C° 0 mm 1 mps 622 mmHg 64%
    12:00 +15°C° 0 mm 2 mps 622 mmHg 62%
    13:00 +15°C° 0.1 mm 2 mps 622 mmHg 65%
    14:00 +15°C° 0.1 mm 2 mps 622 mmHg 67%
    15:00 +14°C° 0.1 mm 2 mps 621 mmHg 70%
    16:00 +13°C° 0.1 mm 1 mps 621 mmHg 77%
    17:00 +12°C° 0.1 mm 1 mps 620 mmHg 83%
    18:00 +10°C° 0.1 mm 1 mps 620 mmHg 90%
    19:00 +10°C° 0 mm 1 mps 620 mmHg 91%
    20:00 +9°C° 0 mm 1 mps 620 mmHg 91%
    21:00 +9°C° 0 mm 1 mps 620 mmHg 91%
    22:00 +9°C° 0 mm 1 mps 619 mmHg 92%
    23:00 +9°C° 0 mm 1 mps 619 mmHg 92%

    22 October, Tuesday

    Time Temperature Precipitation Wind Pressure Humidity
    00:00 +8°C° 0 mm 1 mps 619 mmHg 92%
    01:00 +8°C° 0 mm 1 mps 619 mmHg 91%
    02:00 +8°C° 0 mm 1 mps 619 mmHg 90%
    03:00 +8°C° 0 mm 1 mps 619 mmHg 88%
    04:00 +8°C° 0 mm 1 mps 618 mmHg 88%
    05:00 +7°C° 0 mm 1 mps 618 mmHg 88%
    06:00 +6°C° 0 mm 1 mps 618 mmHg 88%
    07:00 +8°C° 0 mm 1 mps 619 mmHg 81%
    08:00 +10°C° 0 mm 1 mps 619 mmHg 73%
    09:00 +12°C° 0 mm 1 mps 620 mmHg 66%
    10:00 +13°C° 0 mm 1 mps 620 mmHg 62%
    11:00 +14°C° 0 mm 2 mps 621 mmHg 57%
    12:00 +15°C° 0 mm 2 mps 621 mmHg 53%
    13:00 +15°C° 0 mm 2 mps 620 mmHg 55%
    14:00 +15°C° 0 mm 2 mps 620 mmHg 57%
    15:00 +15°C° 0 mm 2 mps 620 mmHg 58%
    16:00 +13°C° 0 mm 1 mps 619 mmHg 68%
    17:00 +11°C° 0 mm 1 mps 618 mmHg 77%
    18:00 +9°C° 0 mm 1 mps 618 mmHg 87%
    19:00 +9°C° 0 mm 1 mps 618 mmHg 87%
    20:00 +9°C° 0 mm 1 mps 617 mmHg 88%
    21:00 +7°C° 0 mm 0 mps 617 mmHg 89%
    22:00 +7°C° 0 mm 0 mps 617 mmHg 88%
    23:00 +7°C° 0 mm 0 mps 617 mmHg 87%

    23 October, Wednesday

    Time Temperature Precipitation Wind Pressure Humidity
    00:00 +6°C° 0 mm 0 mps 617 mmHg 86%
    01:00 +6°C° 0 mm 0 mps 617 mmHg 85%
    02:00 +7°C° 0 mm 1 mps 617 mmHg 84%
    03:00 +7°C° 0 mm 1 mps 617 mmHg 82%
    04:00 +7°C° 0 mm 1 mps 617 mmHg 81%
    05:00 +7°C° 0 mm 1 mps 617 mmHg 80%
    06:00 +7°C° 0 mm 1 mps 617 mmHg 78%
    07:00 +9°C° 0 mm 1 mps 618 mmHg 71%
    08:00 +10°C° 0 mm 0 mps 619 mmHg 63%
    09:00 +12°C° 0 mm 0 mps 620 mmHg 55%
    10:00 +14°C° 0 mm 1 mps 620 mmHg 53%
    11:00 +15°C° 0 mm 1 mps 621 mmHg 51%
    12:00 +16°C° 0 mm 1 mps 621 mmHg 49%
    13:00 +16°C° 0.1 mm 1 mps 621 mmHg 52%
    14:00 +15°C° 0.1 mm 1 mps 620 mmHg 55%
    15:00 +15°C° 0.1 mm 1 mps 620 mmHg 58%
    16:00 +13°C° 0.1 mm 1 mps 620 mmHg 67%
    17:00 +11°C° 0.1 mm 1 mps 620 mmHg 76%
    18:00 +9°C° 0.1 mm 0 mps 619 mmHg 85%
    19:00 +8°C° 0 mm 0 mps 619 mmHg 86%
    20:00 +8°C° 0 mm 0 mps 619 mmHg 86%
    21:00 +8°C° 0 mm 1 mps 619 mmHg 87%
    22:00 +8°C° 0 mm 1 mps 619 mmHg 86%
    23:00 +7°C° 0 mm 1 mps 619 mmHg 86%
    Show more